Weather History for K2G4 - August, 2014

Change the Weather History Date:

Wednesday, August 20, 2014

  Actual Average (KMGW) Record (KMGW)
Temperature  
Mean Temperature 66 °F 72 °F  
Max Temperature 73 °F 82 °F 98 °F (1983)
Min Temperature 60 °F 62 °F 48 °F (1953)
Degree Days  
Heating Degree Days 0 0  
Month to date heating degree days 0  
Since 1 June heating degree days 34  
Since 1 July heating degree days 3  
Cooling Degree Days 2 7  
Month to date cooling degree days 154  
Year to date cooling degree days 638  
Since 1 June cooling degree days 571  
Growing Degree Days 16 (Base 50)    
Moisture  
Dew Point 64 °F    
Average Humidity 77    
Maximum Humidity 100    
Minimum Humidity 65    
Precipitation  
Precipitation 0.00 in 0.12 in 1.32 in (2007)
Month to date precipitation 2.35  
Year to date precipitation 28.27  
Sea Level Pressure  
Sea Level Pressure 30.05 in    
Wind  
Wind Speed 5 mph (SW)    
Max Wind Speed 10 mph    
Max Gust Speed 21 mph    
Visibility 7 miles    
Events Fog    
T = Trace of Precipitation, MM = Missing Value Source: NWS Daily Summary

Daily Weather History Graph

Daily Weather History Graph

Search for Another Location

Airport or City:

Trip Planner

Search our weather history database for the weather conditions in past years. The results will help you decide how hot, cold, wet, or windy it might be!

Date:

Astronomy

Aug. 20, 2014 Rise Set
Actual Time 6:34 AM EDT 8:06 PM EDT
Civil Twilight 6:05 AM EDT 8:34 PM EDT
Nautical Twilight 5:31 AM EDT 9:08 PM EDT
Astronomical Twilight 4:55 AM EDT 9:44 PM EDT
Moon 2:13 AM EDT (8/20) 4:49 PM EDT (8/20)
Length of Visible Light 14h 28m
Length of Day
13h 31m
Waning Crescent, 21% of the Moon is Illuminated
Aug 20
Waning Crescent
Aug 25
New
Sep 2
First Quarter
Sep 8
Full
Sep 15
Last Quarter

Hourly Weather History & Observations

Time (EDT) Temp. Dew Point Humidity Pressure Visibility Wind Dir Wind Speed Gust Speed Precip Events Conditions
12:10 AM 62.6 °F - N/A% 30.01 in 7.0 mi SSE 5.8 mph - N/A   Clear
12:30 AM 62.6 °F - N/A% 30.01 in 7.0 mi South 4.6 mph - N/A   Clear
12:50 AM 62.6 °F - N/A% 30.01 in 7.0 mi South 4.6 mph - N/A   Clear
1:10 AM 62.6 °F - N/A% 30.02 in 7.0 mi SSE 5.8 mph - N/A   Clear
1:30 AM 62.6 °F - N/A% 30.02 in 7.0 mi SSE 5.8 mph - N/A   Clear
1:50 AM 62.6 °F - N/A% 30.01 in 7.0 mi SSE 4.6 mph - N/A   Clear
2:10 AM 62.6 °F - N/A% 30.01 in 7.0 mi South 4.6 mph - N/A   Scattered Clouds
2:30 AM 62.6 °F - N/A% 30.00 in 7.0 mi South 4.6 mph - N/A   Scattered Clouds
2:50 AM 62.6 °F - N/A% 30.00 in 5.0 mi SSW 4.6 mph - N/A   Haze
3:10 AM 62.6 °F - N/A% 30.00 in 5.0 mi SSW 3.5 mph - N/A   Haze
3:30 AM 62.6 °F - N/A% 30.00 in 5.0 mi SSW 5.8 mph - N/A   Haze
3:50 AM 62.6 °F - N/A% 29.99 in 7.0 mi SSW 5.8 mph - N/A   Clear
4:10 AM 62.6 °F - N/A% 29.99 in 4.0 mi South 5.8 mph - N/A   Haze
4:30 AM 62.6 °F - N/A% 29.99 in 3.0 mi SSW 5.8 mph - N/A   Clear
4:50 AM 62.6 °F - N/A% 29.99 in 5.0 mi SSW 5.8 mph - N/A   Haze
5:10 AM 62.6 °F - N/A% 29.99 in 4.0 mi SSW 5.8 mph - N/A   Haze
5:30 AM 62.6 °F - N/A% 30.00 in 4.0 mi South 8.1 mph - N/A   Haze
5:50 AM 62.6 °F - N/A% 30.01 in 4.0 mi Calm Calm - N/A   Haze
6:10 AM 62.6 °F - N/A% 30.02 in 0.2 mi WNW 3.5 mph - N/A Fog Fog
6:30 AM 62.6 °F - N/A% 30.02 in 0.8 mi Calm Calm - N/A   Overcast
6:50 AM 62.6 °F - N/A% 30.02 in 0.8 mi Calm Calm - N/A   Overcast
7:10 AM 62.6 °F - N/A% 30.03 in 0.5 mi South 3.5 mph - N/A Fog Fog
7:30 AM 62.6 °F - N/A% 30.02 in 0.2 mi SSE 3.5 mph - N/A Fog Fog
7:50 AM 62.6 °F - N/A% 30.02 in 0.5 mi SSE 3.5 mph - N/A Fog Fog
8:10 AM 64.4 °F - N/A% 30.02 in 3.0 mi South 4.6 mph - N/A   Clear
8:30 AM 64.4 °F - N/A% 30.02 in 3.0 mi South 6.9 mph - N/A   Clear
8:50 AM 64.4 °F - N/A% 30.03 in 2.5 mi South 5.8 mph - N/A   Mostly Cloudy
9:10 AM 64.4 °F - N/A% 30.05 in 2.5 mi South 6.9 mph - N/A   Overcast
9:30 AM 64.4 °F - N/A% 30.06 in 1.5 mi WSW 5.8 mph - N/A   Overcast
9:50 AM 62.6 °F - N/A% 30.06 in 1.2 mi SW 3.5 mph - N/A   Overcast
10:10 AM 62.6 °F - N/A% 30.06 in 1.2 mi Calm Calm - N/A   Overcast
10:30 AM 60.8 °F - N/A% 30.06 in 0.2 mi South 3.5 mph - N/A Fog Fog
10:50 AM 62.6 °F - N/A% 30.07 in 3.0 mi West 3.5 mph - N/A   Overcast
11:10 AM 62.6 °F - N/A% 30.07 in 0.2 mi Calm Calm - N/A Fog Fog
11:30 AM 62.6 °F - N/A% 30.06 in 1.2 mi Calm Calm - N/A   Overcast
11:50 AM 64.4 °F - N/A% 30.07 in 5.0 mi Calm Calm - N/A   Haze
12:10 PM 64.4 °F - N/A% 30.07 in 5.0 mi SW 4.6 mph - N/A   Haze
12:30 PM 68.0 °F - N/A% 30.06 in 10.0 mi SSW 3.5 mph - N/A   Scattered Clouds
12:50 PM 69.8 °F - N/A% 30.05 in 10.0 mi SSW 4.6 mph - N/A   Scattered Clouds
1:10 PM 69.8 °F 68.0 °F 94% 30.05 in 10.0 mi SW 8.1 mph - N/A   Scattered Clouds
1:30 PM 71.6 °F 66.2 °F 83% 30.05 in 10.0 mi SW 9.2 mph - N/A   Clear
1:50 PM 71.6 °F 64.4 °F 78% 30.05 in 10.0 mi SW 10.4 mph 16.1 mph N/A   Scattered Clouds
2:10 PM 71.6 °F 62.6 °F 73% 30.05 in 10.0 mi SW 10.4 mph 20.7 mph N/A   Scattered Clouds
2:30 PM 73.4 °F 60.8 °F 65% 30.04 in 10.0 mi SW 8.1 mph 17.3 mph N/A   Scattered Clouds
2:50 PM 71.6 °F 60.8 °F 69% 30.05 in 10.0 mi West 10.4 mph 17.3 mph N/A   Scattered Clouds
3:10 PM 73.4 °F 62.6 °F 69% 30.05 in 10.0 mi West 8.1 mph - N/A   Scattered Clouds
3:30 PM 73.4 °F 62.6 °F 69% 30.06 in 10.0 mi West 8.1 mph - N/A   Scattered Clouds
3:50 PM 73.4 °F 60.8 °F 65% 30.06 in 10.0 mi West 8.1 mph - N/A   Scattered Clouds
4:10 PM 71.6 °F 62.6 °F 73% 30.06 in 10.0 mi West 6.9 mph - N/A   Mostly Cloudy
4:30 PM 73.4 °F 62.6 °F 69% 30.06 in 10.0 mi WSW 8.1 mph - N/A   Mostly Cloudy
4:50 PM 73.4 °F 62.6 °F 69% 30.07 in 10.0 mi WSW 4.6 mph - N/A   Mostly Cloudy
5:10 PM 73.4 °F 62.6 °F 69% 30.07 in 10.0 mi West 5.8 mph - N/A   Mostly Cloudy
5:30 PM 73.4 °F 62.6 °F 69% 30.07 in 10.0 mi WSW 6.9 mph - N/A   Mostly Cloudy
5:50 PM 71.6 °F 64.4 °F 78% 30.07 in 10.0 mi West 4.6 mph - N/A   Clear
6:10 PM 71.6 °F 62.6 °F 73% 30.07 in 10.0 mi WSW 5.8 mph - N/A   Clear
6:30 PM 69.8 °F 64.4 °F 83% 30.06 in 10.0 mi WSW 4.6 mph - N/A   Clear
6:50 PM 68.0 °F 64.4 °F 88% 30.06 in 10.0 mi SW 4.6 mph - N/A   Clear
7:15 PM 69.8 °F 64.4 °F 83% 30.07 in 10.0 mi WSW 3.5 mph - N/A   Clear
7:35 PM 69.8 °F 64.4 °F 83% 30.07 in 10.0 mi WSW 3.5 mph - N/A   Clear
8:15 PM 66.2 °F 66.2 °F 100% 30.08 in 10.0 mi SW 4.6 mph - N/A   Clear
8:35 PM 64.4 °F 64.4 °F 100% 30.09 in 10.0 mi South 4.6 mph - N/A   Clear
8:55 PM 64.4 °F - N/A% 30.09 in 10.0 mi SSW 4.6 mph - N/A   Clear
9:15 PM 64.4 °F - N/A% 30.09 in 10.0 mi SSW 6.9 mph - N/A   Clear
9:35 PM 64.4 °F - N/A% 30.09 in 10.0 mi SSW 6.9 mph - N/A   Clear
9:55 PM 64.4 °F - N/A% 30.11 in 10.0 mi SW 5.8 mph - N/A   Clear
10:15 PM 64.4 °F - N/A% 30.10 in 10.0 mi SW 5.8 mph - N/A   Clear
10:35 PM 64.4 °F - N/A% 30.11 in 10.0 mi WSW 6.9 mph - N/A   Clear
10:55 PM 64.4 °F - N/A% 30.11 in 10.0 mi SW 6.9 mph - N/A   Clear
11:15 PM 64.4 °F - N/A% 30.11 in 10.0 mi SW 5.8 mph - N/A   Clear
11:35 PM 64.4 °F - N/A% 30.12 in 10.0 mi Calm Calm - N/A   Clear
11:55 PM 64.4 °F - N/A% 30.12 in 10.0 mi SSW 3.5 mph - N/A   Scattered Clouds